GE 6

operational
NORAD ID: 26580 Int'l Des: 2000-067 Owner: AMCG Country: US
HEOCIRCULARGSOGEO

关于 GE 6

正在加载描述...

实时位置

正在加载3D地球...

即将过境

高度历史

Altitude vs Time

uPlot chart will show altitude changes over time

两行轨道根数

1 26580U 00067A 26063.09419830 .00000076 00000-0 00000+0 0 9997
2 26580 0.0504 306.7725 0003116 39.4699 74.4412 1.00271968 92831
Epoch: Mar 4, 2026 • Age: 23 hours

当前状态

高度 35773.6 km
速度 3.08 km/s
星下点 0.02°N, 135.05°W
发射日期 Oct 21, 2000
运行时间 25.3 years
类型 other

技术详情

分类 Payload
质量 3552.00 kg
干质量 1600.00 kg
总质量 3552.00 kg
长度 6.10 m
直径 2.50 m
跨度 27.00 m
形状 Box + 2 Pan
制造商 LMCSS
平台类型 A2100AX
阶段状态 Unknown Active Status
所有者/国家 AMCG/US

大型星座

Loading constellations...